GW6788 Weather Reports


time (UTC)temp
C
wind
direction
speed
KPH
gust
KPH
rain 1hr
cm
rain 24hr
cm
rain mn
cm
humidity
%
barometer
mb
20260508145509 16 89 1.6 4.8 0.00 0.13 0.00 45 1019.2
20260508145009 16 228 3.2 6.4 0.00 0.13 0.00 45 1019.2
20260508144525 16 249 3.2 9.7 0.00 0.13 0.00 45 1019.2
20260508144004 16 229 3.2 9.7 0.00 0.13 0.00 45 1019.3
20260508143503 16 238 1.6 9.7 0.00 0.13 0.00 44 1019.2
20260508143008 16 256 6.4 9.7 0.00 0.13 0.00 44 1019.2
20260508142505 16 32 1.6 6.4 0.00 0.13 0.00 45 1019.2
20260508142003 16 3 3.2 6.4 0.00 0.13 0.00 45 1019.2
20260508141516 16 31 1.6 3.2 0.00 0.13 0.00 46 1019.2
20260508141006 16 80 1.6 4.8 0.00 0.13 0.00 47 1019.2
20260508140508 16 74 1.6 6.4 0.00 0.13 0.00 47 1019.2
20260508140027 15 55 1.6 8.0 0.00 0.13 0.00 46 1019.2
20260508135508 16 54 6.4 8.0 0.00 0.13 0.00 47 1019.1
20260508135008 15 340 1.6 6.4 0.00 0.13 0.00 49 1019.0
20260508134530 15 235 1.6 6.4 0.00 0.13 0.00 46 1019.1
20260508134009 15 82 1.6 4.8 0.00 0.13 0.00 52 1019.1
20260508133506 15 120 1.6 4.8 0.00 0.13 0.00 49 1019.1
20260508133009 15 159 1.6 6.4 0.00 0.15 0.00 53 1019.1
20260508132510 15 30 0.0 6.4 0.00 0.15 0.00 52 1019.1
20260508132004 15 27 3.2 6.4 0.00 0.15 0.00 55 1019.0
20260508131512 14 104 3.2 4.8 0.00 0.15 0.00 56 1018.9
20260508131003 14 152 1.6 3.2 0.00 0.15 0.00 59 1018.9
20260508130503 13 19 0.0 4.8 0.00 0.15 0.00 63 1018.9
20260508130018 13 54 1.6 4.8 0.00 0.18 0.00 67 1018.8
20260508125509 13 29 1.6 6.4 0.00 0.18 0.00 71 1018.8
20260508125009 12 325 1.6 6.4 0.00 0.18 0.00 78 1018.9
20260508124522 12 304 1.6 4.8 0.00 0.18 0.00 79 1018.9
20260508124010 11 314 1.6 4.8 0.00 0.20 0.00 81 1018.8
20260508123508 11 277 1.6 3.2 0.00 0.20 0.00 82 1018.7
20260508123024 11 235 1.6 3.2 0.00 0.20 0.00 85 1018.7
20260508122510 10 262 1.6 3.2 0.00 0.20 0.00 86 1018.6
20260508122011 10 278 1.6 3.2 0.00 0.23 0.00 88 1018.6
20260508121513 9 304 1.6 3.2 0.00 0.28 0.00 89 1018.5
20260508121004 9 17 0.0 3.2 0.00 0.30 0.00 89 1018.5
20260508120505 8 332 0.0 3.2 0.00 0.33 0.00 90 1018.5
20260508120015 8 337 0.0 3.2 0.00 0.36 0.00 90 1018.4
20260508115506 8 341 0.0 3.2 0.00 0.41 0.00 90 1018.3
20260508115007 8 344 0.0 3.2 0.00 0.43 0.00 90 1018.4
20260508114523 8 337 0.0 3.2 0.00 0.46 0.00 91 1018.3
20260508114008 8 31 0.0 3.2 0.00 0.48 0.00 91 1018.3
20260508113508 7 32 0.0 3.2 0.00 0.48 0.00 91 1018.2
20260508113024 7 32 0.0 3.2 0.00 0.48 0.00 91 1018.1
20260508112510 7 34 0.0 1.6 0.00 0.48 0.00 91 1017.9
20260508112008 7 34 0.0 1.6 0.00 0.48 0.00 92 1017.7
20260508111526 7 41 0.0 3.2 0.00 0.48 0.00 91 1017.7
20260508111008 7 42 1.6 3.2 0.00 0.48 0.00 91 1017.7
20260508110504 7 35 1.6 3.2 0.00 0.48 0.00 91 1017.6
20260508110019 7 19 0.0 3.2 0.00 0.48 0.00 90 1017.6
20260508105506 7 19 0.0 3.2 0.00 0.48 0.00 91 1017.5
20260508105005 7 16 0.0 3.2 0.00 0.48 0.00 90 1017.4
20260508104517 7 15 0.0 3.2 0.00 0.48 0.00 90 1017.3
20260508104007 7 16 0.0 3.2 0.00 0.48 0.00 91 1017.2
20260508103507 7 15 0.0 3.2 0.00 0.48 0.00 90 1017.0
20260508103035 7 10 0.0 3.2 0.00 0.48 0.00 90 1016.8
20260508102510 7 10 0.0 3.2 0.00 0.48 0.00 89 1016.7
20260508102008 7 10 0.0 3.2 0.00 0.48 0.00 89 1016.6
20260508101526 7 9 0.0 3.2 0.00 0.48 0.00 89 1016.6
20260508101010 7 10 0.0 0.0 0.00 0.48 0.00 89 1016.5
20260508100507 7 10 0.0 3.2 0.00 0.48 0.00 89 1016.4
20260508100028 7 10 0.0 3.2 0.00 0.48 0.00 89 1016.4
20260508095508 7 11 0.0 3.2 0.00 0.48 0.00 89 1016.4
20260508095005 7 11 0.0 0.0 0.00 0.48 0.00 89 1016.4
20260508094518 7 11 0.0 3.2 0.00 0.48 0.00 89 1016.4
20260508094006 7 11 0.0 3.2 0.00 0.48 0.00 89 1016.4
20260508093508 7 20 0.0 3.2 0.00 0.48 0.00 90 1016.2
20260508093024 7 21 0.0 3.2 0.00 0.48 0.00 90 1016.3
20260508092508 7 21 0.0 3.2 0.00 0.51 0.00 90 1016.2
20260508092010 7 20 0.0 3.2 0.00 0.51 0.00 90 1016.2
20260508091527 7 19 0.0 1.6 0.00 0.51 0.00 89 1016.1
20260508091009 7 20 0.0 3.2 0.00 0.51 0.00 89 1016.2
20260508090511 8 20 0.0 3.2 0.00 0.51 0.00 89 1016.1
20260508090028 8 20 0.0 3.2 0.00 0.51 0.00 89 1016.1
20260508085507 8 28 0.0 3.2 0.00 0.51 0.00 90 1015.9
20260508085008 8 29 0.0 3.2 0.00 0.51 0.00 90 1015.9
20260508084526 8 29 0.0 3.2 0.00 0.53 0.00 90 1015.9
20260508084012 8 29 0.0 1.6 0.00 0.53 0.00 90 1016.1
20260508083507 8 29 1.6 3.2 0.00 0.53 0.00 90 1016.0
20260508083020 8 16 0.0 3.2 0.00 0.53 0.00 90 1015.9
20260508082504 8 356 0.0 3.2 0.00 0.53 0.00 90 1015.9
20260508082013 8 356 0.0 3.2 0.00 0.53 0.00 90 1016.0
20260508081553 8 356 0.0 3.2 0.00 0.53 0.00 90 1016.0
20260508081005 8 348 0.0 3.2 0.00 0.53 0.00 90 1015.9
20260508080503 8 327 0.0 3.2 0.00 0.53 0.00 90 1015.9
20260508080008 8 322 0.0 3.2 0.00 0.53 0.00 90 1015.9
20260508075504 8 315 0.0 3.2 0.00 0.53 0.00 90 1015.8
20260508075005 8 322 0.0 3.2 0.00 0.53 0.00 89 1015.7
20260508074511 8 311 0.0 3.2 0.00 0.53 0.00 89 1015.6
20260508074005 8 311 0.0 3.2 0.00 0.53 0.00 89 1015.7
20260508073504 8 313 0.0 3.2 0.00 0.53 0.00 90 1015.5
20260508073018 8 313 0.0 3.2 0.00 0.53 0.00 90 1015.6
20260508072503 8 304 0.0 3.2 0.00 0.53 0.00 89 1015.6
20260508072007 8 304 0.0 3.2 0.00 0.53 0.00 89 1015.6
20260508071537 8 311 0.0 3.2 0.00 0.53 0.00 89 1015.7
20260508071011 8 315 0.0 3.2 0.00 0.53 0.00 89 1015.7
20260508070507 9 9 0.0 3.2 0.00 0.53 0.00 89 1015.5
20260508070006 9 9 0.0 3.2 0.00 0.53 0.00 89 1015.5
20260508065502 9 9 0.0 3.2 0.00 0.53 0.00 89 1015.4
20260508065005 9 4 0.0 3.2 0.00 0.53 0.00 89 1015.4
20260508064511 9 340 0.0 3.2 0.00 0.53 0.00 89 1015.4
20260508064006 9 330 0.0 3.2 0.00 0.53 0.00 88 1015.3
20260508063502 9 330 0.0 3.2 0.00 0.53 0.00 88 1015.4
20260508063028 9 312 0.0 3.2 0.00 0.53 0.00 88 1015.3
20260508062506 9 312 0.0 3.2 0.00 0.53 0.00 88 1015.4
20260508062007 9 312 0.0 3.2 0.00 0.53 0.00 89 1015.3
20260508061521 9 312 0.0 3.2 0.00 0.53 0.00 89 1015.3
20260508061007 9 309 0.0 3.2 0.00 0.53 0.00 88 1015.4
20260508060507 10 309 0.0 3.2 0.00 0.56 0.00 88 1015.4
20260508060029 10 314 0.0 3.2 0.00 0.56 0.00 88 1015.5
20260508055503 10 315 0.0 3.2 0.00 0.56 0.00 88 1015.5
20260508055003 10 314 0.0 3.2 0.00 0.56 0.00 89 1015.4
20260508054509 10 314 0.0 3.2 0.00 0.56 0.00 88 1015.4
20260508054002 10 314 0.0 3.2 0.00 0.56 0.00 88 1015.3
20260508053503 10 336 0.0 3.2 0.00 0.56 0.00 87 1015.3
20260508053016 10 29 0.0 3.2 0.00 0.56 0.00 88 1015.4
20260508052510 10 30 0.0 1.6 0.00 0.56 0.00 88 1015.4
20260508052003 10 30 0.0 1.6 0.00 0.58 0.00 87 1015.2
20260508051516 10 30 1.6 1.6 0.00 0.58 0.00 87 1015.2
20260508051004 10 360 0.0 3.2 0.00 0.58 0.00 87 1015.3
20260508050506 10 300 0.0 3.2 0.00 0.58 0.00 87 1015.2
20260508050023 10 300 0.0 3.2 0.00 0.58 0.00 86 1015.2
20260508045508 10 304 0.0 3.2 0.00 0.61 0.00 86 1015.1
20260508045009 11 305 1.6 3.2 0.00 0.66 0.00 86 1015.0
20260508044529 11 166 0.0 3.2 0.00 0.66 0.00 85 1015.1
20260508044004 11 31 0.0 3.2 0.00 0.66 0.00 86 1015.0
20260508043506 10 31 0.0 3.2 0.00 0.66 0.00 86 1015.0
20260508043011 10 31 0.0 3.2 0.00 0.66 0.00 86 1015.0
20260508042505 11 31 1.6 3.2 0.00 0.66 0.00 86 1015.0
20260508042003 11 19 0.0 3.2 0.00 0.66 0.00 86 1015.0
20260508041517 11 19 1.6 3.2 0.00 0.66 0.00 85 1015.0
20260508041008 11 270 0.0 3.2 0.00 0.66 0.00 85 1015.0
20260508040504 11 270 0.0 3.2 0.00 0.66 0.00 85 1015.0
20260508040022 11 273 0.0 3.2 0.00 0.66 0.00 84 1015.0
20260508035507 11 17 0.0 3.2 0.00 0.66 0.66 84 1014.9
20260508035008 11 17 0.0 3.2 0.00 0.66 0.66 84 1015.0
20260508034525 11 17 0.0 3.2 0.00 0.66 0.66 83 1015.0
20260508034008 11 16 0.0 3.2 0.00 0.66 0.66 83 1014.9
20260508033510 11 16 0.0 3.2 0.00 0.66 0.66 83 1014.6
20260508033026 11 16 0.0 3.2 0.00 0.66 0.66 83 1014.7
20260508032505 11 16 0.0 3.2 0.00 0.66 0.66 82 1014.6
20260508032004 11 26 1.6 3.2 0.00 0.66 0.66 81 1014.8
20260508031516 11 14 1.6 3.2 0.00 0.66 0.66 82 1014.8
20260508031006 11 295 0.0 3.2 0.00 0.66 0.66 81 1014.7
20260508030507 12 285 0.0 3.2 0.00 0.66 0.66 81 1014.7
20260508030018 12 288 1.6 3.2 0.00 0.66 0.66 80 1014.7
20260508025507 12 275 3.2 3.2 0.00 0.69 0.66 79 1014.5
20260508025006 12 280 0.0 3.2 0.00 0.71 0.66 77 1014.5
20260508024540 12 29 0.0 1.6 0.00 0.76 0.66 76 1014.3
20260508024008 12 29 0.0 3.2 0.00 0.76 0.66 76 1014.3
20260508023509 12 29 0.0 3.2 0.00 0.79 0.66 76 1014.3
20260508023027 13 29 0.0 3.2 0.00 0.79 0.66 76 1014.2
20260508022507 13 29 0.0 3.2 0.00 0.79 0.66 76 1014.1
20260508022011 13 30 1.6 1.6 0.00 0.81 0.66 74 1014.3
20260508021512 13 29 0.0 3.2 0.00 0.81 0.66 73 1014.2
20260508021002 13 29 1.6 3.2 0.00 0.81 0.66 73 1014.1
20260508020505 13 317 0.0 3.2 0.00 0.81 0.66 71 1014.1
20260508020016 14 330 0.0 3.2 0.00 0.84 0.66 69 1014.0
20260508015504 14 330 0.0 3.2 0.00 0.84 0.66 68 1013.9
20260508015008 14 29 0.0 3.2 0.00 0.86 0.66 65 1013.9
20260508014524 15 29 0.0 3.2 0.00 0.86 0.66 65 1013.8
20260508014008 15 29 0.0 3.2 0.00 0.89 0.66 66 1013.6
20260508013507 15 21 0.0 3.2 0.00 0.94 0.66 64 1013.5
20260508013025 15 23 0.0 3.2 0.00 0.97 0.66 61 1013.5
20260508012507 15 22 0.0 4.8 0.00 0.99 0.66 61 1013.4
20260508012007 15 22 1.6 4.8 0.00 0.99 0.66 61 1013.3
20260508011529 15 5 1.6 6.4 0.00 1.04 0.66 60 1013.2
20260508011010 15 31 1.6 6.4 0.00 1.04 0.66 60 1013.1
20260508010510 15 29 3.2 6.4 0.00 1.04 0.66 59 1013.0
20260508010013 16 52 3.2 9.7 0.00 1.04 0.66 59 1013.0
20260508005506 16 52 4.8 12.9 0.00 1.04 0.66 58 1013.0
20260508005010 16 31 4.8 12.9 0.00 1.07 0.66 58 1012.9
20260508004518 16 8 6.4 17.7 0.00 1.07 0.66 57 1012.6
20260508004010 16 349 6.4 19.3 0.00 1.07 0.66 57 1012.5
20260508003513 16 5 8.0 19.3 0.00 1.12 0.66 58 1012.5
20260508003023 16 350 9.7 19.3 0.00 1.17 0.66 57 1012.3
20260508002511 16 10 4.8 16.1 0.00 1.22 0.66 59 1012.3
20260508002011 16 38 6.4 20.9 0.00 1.24 0.66 59 1012.2
20260508001526 17 50 9.7 20.9 0.00 1.27 0.66 60 1012.2
20260508001007 17 25 8.0 20.9 0.00 1.30 0.66 61 1012.0
20260508000508 17 20 11.3 20.9 0.00 1.32 0.66 63 1012.0
20260508000027 17 31 11.3 20.9 0.00 1.32 0.66 72 1012.0
20260507235511 17 26 3.2 6.4 0.00 1.32 0.66 82 1012.0
20260507235003 17 20 1.6 9.7 0.00 1.32 0.66 81 1011.9
20260507234518 17 43 6.4 12.9 0.00 1.32 0.66 81 1011.8
20260507234004 17 31 4.8 12.9 0.00 1.32 0.66 81 1011.8
20260507233504 17 26 8.0 14.5 0.00 1.32 0.66 80 1011.5
20260507233035 17 31 8.0 14.5 0.00 1.32 0.66 80 1011.6
20260507232507 17 26 6.4 11.3 0.00 1.32 0.66 80 1011.6
20260507232009 17 62 6.4 11.3 0.00 1.32 0.66 79 1011.4
20260507231533 17 100 1.6 11.3 0.00 1.37 0.66 79 1011.4
20260507231008 17 72 6.4 14.5 0.00 1.40 0.66 78 1011.3
20260507230507 17 73 6.4 17.7 0.00 1.40 0.66 78 1011.2
20260507230027 17 30 8.0 17.7 0.00 1.40 0.66 78 1011.0
20260507225507 17 359 6.4 12.9 0.00 1.40 0.66 78 1011.0
20260507225009 17 38 8.0 12.9 0.00 1.40 0.66 78 1011.0
20260507224531 17 346 4.8 11.3 0.00 1.40 0.66 78 1010.8
20260507224011 17 76 6.4 11.3 0.00 1.40 0.66 78 1010.8
20260507223507 17 180 1.6 12.9 0.00 1.40 0.66 78 1010.6
20260507223016 17 48 6.4 17.7 0.00 1.40 0.66 77 1010.3
20260507222510 17 58 9.7 17.7 0.00 1.40 0.66 77 1010.3
20260507222008 17 128 8.0 17.7 0.00 1.40 0.66 77 1010.3
20260507221510 18 31 6.4 12.9 0.00 1.40 0.66 76 1010.3
20260507221003 18 356 4.8 16.1 0.00 1.40 0.66 76 1010.3
20260507220503 18 45 6.4 22.5 0.00 1.40 0.66 76 1010.2
20260507220008 18 71 8.0 22.5 0.00 1.40 0.66 77 1010.2
20260507215507 18 16 11.3 25.7 0.00 1.40 0.66 75 1010.0
20260507215004 18 81 12.9 25.7 0.00 1.40 0.66 75 1010.0
20260507214510 18 31 6.4 17.7 0.00 1.40 0.66 77 1009.9
20260507214003 18 29 9.7 20.9 0.00 1.40 0.66 76 1009.9
20260507213507 18 348 9.7 22.5 0.00 1.40 0.66 78 1009.7
20260507213016 18 71 12.9 24.1 0.00 1.40 0.66 79 1009.6
20260507212505 18 41 12.9 24.1 0.00 1.40 0.66 79 1009.4
20260507212009 18 29 12.9 22.5 0.00 1.40 0.66 79 1009.3
20260507211525 18 66 12.9 20.9 0.00 1.40 0.66 79 1009.3
20260507211005 18 53 11.3 22.5 0.00 1.40 0.66 80 1009.3
20260507210504 17 53 9.7 32.2 0.00 1.40 0.66 81 1009.3
20260507210006 17 41 14.5 32.2 0.00 1.40 0.66 81 1009.0
20260507205502 18 80 8.0 25.7 0.00 1.40 0.66 81 1008.9
20260507205003 18 326 12.9 22.5 0.00 1.40 0.66 80 1009.3
20260507204510 18 360 8.0 17.7 0.00 1.40 0.66 80 1008.8
20260507204004 19 9 8.0 17.7 0.00 1.40 0.66 79 1008.7
20260507203507 20 41 4.8 16.1 0.00 1.40 0.66 78 1008.8
20260507203014 21 89 9.7 20.9 0.00 1.40 0.66 75 1008.7
20260507202508 22 60 11.3 20.9 0.00 1.40 0.66 73 1008.8
20260507202006 22 148 3.2 11.3 0.00 1.40 0.66 70 1008.6
20260507201522 22 276 4.8 11.3 0.00 1.40 0.66 71 1008.3
20260507201010 22 214 3.2 11.3 0.03 1.40 0.66 73 1008.3
20260507200508 22 195 4.8 14.5 0.05 1.40 0.66 79 1008.5
20260507200006 22 193 8.0 16.1 0.08 1.40 0.66 80 1008.4
20260507195505 21 231 6.4 16.1 0.10 1.40 0.66 80 1008.4
20260507195003 21 242 4.8 17.7 0.13 1.40 0.66 82 1008.3
20260507194508 21 206 8.0 17.7 0.13 1.40 0.66 82 1008.4
20260507194002 21 253 4.8 14.5 0.13 1.40 0.66 84 1008.5
20260507193505 21 243 4.8 14.5 0.13 1.40 0.66 85 1008.6
20260507193010 21 249 4.8 9.7 0.13 1.40 0.66 85 1008.4
20260507192506 21 251 4.8 9.7 0.13 1.40 0.66 85 1008.6
20260507192007 21 260 4.8 6.4 0.13 1.40 0.66 83 1008.8
20260507191516 21 181 3.2 12.9 0.13 1.40 0.66 80 1008.7
20260507191005 21 275 4.8 12.9 0.10 1.37 0.64 78 1008.8
20260507190507 22 225 3.2 9.7 0.08 1.32 0.61 76 1008.7
20260507190024 22 228 6.4 12.9 0.05 1.32 0.58 74 1008.8
20260507185507 23 234 8.0 12.9 0.03 1.30 0.56 73 1008.9
20260507185004 23 214 6.4 12.9 0.00 1.27 0.53 68 1008.6
20260507184508 23 287 6.4 12.9 0.00 1.27 0.53 68 1008.8
20260507184005 23 275 6.4 16.1 0.00 1.27 0.53 69 1008.8
20260507183506 23 269 9.7 16.1 0.00 1.27 0.53 68 1008.8
20260507183013 23 271 6.4 16.1 0.00 1.27 0.53 68 1008.9
20260507182505 22 250 6.4 16.1 0.00 1.27 0.53 68 1009.0
20260507182004 22 279 3.2 16.1 0.00 1.27 0.53 71 1009.1
20260507181521 22 280 4.8 11.3 0.00 1.27 0.53 70 1008.9
20260507181009 22 200 6.4 11.3 0.00 1.27 0.53 71 1009.1
20260507180506 22 174 3.2 16.1 0.00 1.27 0.53 71 1009.1
20260507180024 22 171 4.8 16.1 0.00 1.27 0.53 72 1009.1
20260507175508 22 266 6.4 14.5 0.00 1.27 0.53 71 1009.0
20260507175008 22 151 9.7 14.5 0.00 1.27 0.53 72 1009.1
20260507174524 22 284 4.8 17.7 0.00 1.27 0.53 72 1009.1
20260507174009 22 297 9.7 17.7 0.00 1.27 0.53 71 1009.2
20260507173514 22 199 8.0 17.7 0.00 1.27 0.53 72 1009.3
20260507173020 22 205 6.4 11.3 0.00 1.27 0.53 75 1009.4
20260507172505 22 274 8.0 12.9 0.00 1.27 0.53 76 1009.4
20260507172003 21 187 6.4 12.9 0.00 1.30 0.53 78 1009.6
20260507171511 21 213 6.4 14.5 0.00 1.30 0.53 76 1009.6
20260507171005 21 249 8.0 14.5 0.00 1.30 0.53 77 1009.6
20260507170508 21 289 6.4 12.9 0.00 1.30 0.53 77 1009.7
20260507170020 21 279 6.4 14.5 0.00 1.30 0.53 78 1009.8
20260507165506 21 203 4.8 14.5 0.00 1.30 0.53 78 1009.9
20260507165007 21 158 4.8 12.9 0.00 1.30 0.53 79 1010.0
20260507164526 21 281 4.8 16.1 0.00 1.42 0.53 79 1010.1
20260507164008 21 255 6.4 16.1 0.00 1.47 0.53 80 1010.2
20260507163508 21 261 8.0 12.9 0.00 1.47 0.53 82 1010.2
20260507163025 20 268 4.8 8.0 0.00 1.47 0.53 84 1010.1
20260507162504 20 299 4.8 8.0 0.00 1.52 0.53 84 1010.0
20260507162004 20 276 3.2 9.7 0.00 1.52 0.53 84 1010.0
20260507161512 20 278 8.0 9.7 0.00 1.52 0.53 86 1010.1
20260507161006 20 280 4.8 9.7 0.00 1.52 0.53 86 1010.1
20260507160504 20 270 4.8 9.7 0.00 1.52 0.53 88 1010.2
20260507160028 19 289 4.8 9.7 0.00 1.52 0.53 87 1010.2
20260507155505 19 268 6.4 8.0 0.00 1.52 0.53 88 1010.1
20260507155006 19 283 3.2 6.4 0.00 1.52 0.53 87 1010.0
20260507154522 19 277 4.8 8.0 0.00 1.52 0.53 87 1010.0
20260507154009 19 301 1.6 8.0 0.00 1.52 0.53 86 1009.8
20260507153509 19 231 1.6 4.8 0.00 1.52 0.53 89 1009.8
20260507153022 18 330 0.0 4.8 0.00 1.52 0.53 90 1009.7
20260507152513 18 114 1.6 8.0 0.00 1.52 0.53 91 1009.6
20260507152009 18 225 3.2 8.0 0.00 1.52 0.53 91 1009.7
20260507151508 18 273 3.2 8.0 0.00 1.52 0.53 93 1009.8
20260507151004 18 237 1.6 4.8 0.00 1.52 0.53 93 1009.9
20260507150505 17 180 3.2 6.4 0.00 1.52 0.53 93 1010.0
20260507150022 17 255 1.6 6.4 0.00 1.52 0.53 93 1010.3